FW7254 Weather Reports


time (UTC)temp
C
wind
direction
speed
KPH
gust
KPH
rain 1hr
cm
rain 24hr
cm
rain mn
cm
humidity
%
barometer
mb
20260509210338 13 17 0.0 0.0 0.00 0.00 0.00 63 1019.4
20260509204825 13 17 0.0 0.0 0.00 0.00 0.00 65 1019.4
20260509203330 13 17 0.0 0.0 0.00 0.00 0.00 63 1019.2
20260509201838 13 17 0.0 0.0 0.00 0.00 0.00 63 1019.0
20260509200318 13 17 0.0 0.0 0.00 0.00 0.00 63 1018.8
20260509194826 13 17 0.0 0.0 0.00 0.00 0.00 62 1018.6
20260509193337 13 17 0.0 0.0 0.00 0.00 0.00 62 1018.4
20260509191839 13 17 0.0 0.0 0.00 0.00 0.00 63 1018.3
20260509190322 13 17 0.0 0.0 0.00 0.00 0.00 63 1018.1
20260509184815 13 17 0.0 0.0 0.00 0.00 0.00 63 1018.0
20260509183341 13 17 0.0 0.0 0.00 0.00 0.00 62 1017.8
20260509181829 13 17 0.0 0.0 0.00 0.00 0.00 59 1017.6
20260509180329 13 17 0.0 0.0 0.00 0.00 0.00 55 1017.4
20260509174815 14 17 0.0 0.0 0.00 0.00 0.00 53 1017.2
20260509173319 14 17 0.0 0.0 0.00 0.00 0.00 51 1017.1
20260509171827 14 17 0.0 0.0 0.00 0.00 0.00 49 1017.1
20260509170334 15 17 0.0 0.0 0.00 0.00 0.00 49 1017.0
20260509164842 15 17 0.0 0.0 0.00 0.00 0.00 48 1017.0
20260509163346 15 17 0.0 0.0 0.00 0.00 0.00 47 1016.9
20260509161832 15 17 0.0 0.0 0.00 0.00 0.00 46 1017.0
20260509160311 15 17 0.0 0.0 0.00 0.00 0.00 45 1016.9
20260509154819 16 17 0.0 0.0 0.00 0.00 0.00 44 1016.7
20260509153325 16 17 0.0 0.0 0.00 0.00 0.00 44 1016.6
20260509151813 16 17 0.0 0.0 0.00 0.00 0.00 43 1016.7
20260509150318 16 17 0.0 0.0 0.00 0.00 0.00 42 1016.8
20260509144846 16 17 0.0 0.0 0.00 0.00 0.00 41 1016.7
20260509143334 16 17 0.0 0.0 0.00 0.00 0.00 40 1016.5
20260509141821 16 17 0.0 0.0 0.00 0.00 0.00 39 1016.4
20260509140327 17 17 0.0 0.0 0.00 0.00 0.00 38 1016.2
20260509134835 17 17 0.0 0.0 0.00 0.00 0.00 37 1016.0
20260509133315 17 17 0.0 0.0 0.00 0.00 0.00 38 1016.0
20260509131843 17 17 0.0 0.0 0.00 0.00 0.00 37 1015.9
20260509130325 17 17 0.0 0.0 0.00 0.00 0.00 35 1015.8
20260509124812 17 17 0.0 0.0 0.00 0.00 0.00 34 1015.8
20260509123317 17 17 0.0 0.0 0.00 0.00 0.00 34 1015.6
20260509121824 17 17 0.0 0.0 0.00 0.00 0.00 36 1015.6
20260509120328 17 17 0.0 0.0 0.00 0.00 0.00 39 1015.7
20260509114836 17 17 0.0 0.0 0.00 0.00 0.00 46 1015.6
20260509113320 18 17 0.0 0.0 0.00 0.00 0.00 50 1015.5
20260509111827 18 17 0.0 0.0 0.00 0.00 0.00 56 1015.1
20260509110326 18 17 0.0 0.0 0.00 0.00 0.00 56 1015.1
20260509104813 18 17 0.0 0.0 0.00 0.00 0.00 55 1014.9
20260509103336 18 17 0.0 0.0 0.00 0.00 0.00 53 1014.7
20260509101827 18 17 0.0 0.0 0.00 0.00 0.00 53 1014.3
20260509100332 19 17 0.0 0.0 0.00 0.00 0.00 53 1013.9
20260509094814 20 17 0.0 0.0 0.00 0.00 0.00 52 1013.8
20260509093319 20 17 0.0 0.0 0.00 0.00 0.00 51 1013.5
20260509091827 20 15 0.0 0.0 0.00 0.00 0.00 50 1013.3
20260509090315 21 15 0.0 0.0 0.00 0.00 0.00 47 1013.2
20260509084814 22 15 0.0 0.0 0.00 0.00 0.00 28 1012.9
20260509083320 22 15 0.0 0.0 0.00 0.00 0.00 29 1012.3
20260509081830 22 16 0.0 0.0 0.00 0.00 0.00 29 1012.1
20260509080314 22 15 1.6 0.0 0.00 0.00 0.00 29 1011.9
20260509074823 22 16 0.0 0.0 0.00 0.00 0.00 31 1011.6
20260509073321 23 14 0.0 0.0 0.00 0.00 0.00 31 1011.6
20260509071849 23 14 0.0 0.0 0.00 0.00 0.00 29 1011.1
20260509070318 23 24 1.6 0.0 0.00 0.00 0.00 30 1010.8
20260509064827 23 25 0.0 0.0 0.00 0.00 0.00 32 1010.5
20260509063332 23 5 1.6 0.0 0.00 0.00 0.00 32 1010.4
20260509061814 23 360 1.6 0.0 0.00 0.00 0.00 32 1010.5
20260509060319 23 355 1.6 0.0 0.00 0.00 0.00 33 1010.3
20260509054828 23 5 1.6 0.0 0.00 0.00 0.00 33 1010.2
20260509053326 23 17 1.6 0.0 0.00 0.00 0.00 32 1010.3
20260509051815 23 5 1.6 0.0 0.00 0.00 0.00 35 1010.2
20260509050317 23 360 3.2 0.0 0.00 0.00 0.00 33 1010.0
20260509044846 23 14 1.6 0.0 0.00 0.00 0.00 36 1010.0
20260509043331 23 349 3.2 0.0 0.00 0.00 0.00 35 1010.0
20260509041813 22 355 3.2 0.0 0.00 0.00 0.00 35 1009.9
20260509040347 22 360 3.2 0.0 0.00 0.00 0.00 36 1010.1
20260509034827 22 360 3.2 0.0 0.00 0.00 0.00 38 1010.1
20260509033338 22 355 6.4 0.0 0.00 0.00 0.00 35 1010.1
20260509031819 22 50 4.8 0.0 0.00 0.00 0.00 35 1010.1
20260509030324 22 24 3.2 0.0 0.00 0.00 0.00 38 1010.0
20260509024852 22 355 4.8 0.0 0.00 0.00 0.00 40 1010.0
20260509023316 22 9 4.8 0.0 0.00 0.00 0.00 36 1010.0
20260509021825 22 360 6.4 0.0 0.00 0.00 0.00 35 1010.1
20260509020329 22 33 3.2 0.0 0.00 0.00 0.00 38 1010.0
20260509014816 22 26 1.6 0.0 0.00 0.00 0.00 39 1010.1
20260509013314 22 360 4.8 0.0 0.00 0.00 0.00 37 1010.0
20260509011822 21 355 0.0 0.0 0.00 0.00 0.00 39 1010.0
20260509010329 20 360 0.0 0.0 0.00 0.00 0.00 37 1010.1
20260509004836 20 360 0.0 0.0 0.00 0.00 0.00 38 1009.9
20260509003319 20 360 0.0 0.0 0.00 0.00 0.00 36 1009.8
20260509001826 20 360 0.0 0.0 0.00 0.00 0.00 38 1009.7
20260509000333 20 360 0.0 0.0 0.00 0.00 0.00 38 1009.2
20260508234820 20 360 0.0 0.0 0.00 0.00 0.00 42 1009.2
20260508233325 20 360 0.0 0.0 0.00 0.00 0.00 39 1008.9
20260508231832 19 360 0.0 0.0 0.00 0.00 0.00 42 1008.8
20260508230339 19 360 0.0 0.0 0.00 0.00 0.00 42 1008.5
20260508224826 18 360 0.0 0.0 0.00 0.00 0.00 44 1008.1
20260508223330 18 360 0.0 0.0 0.00 0.00 0.00 44 1008.0
20260508221839 17 360 0.0 0.0 0.00 0.00 0.00 46 1007.6
20260508220315 16 360 0.0 0.0 0.00 0.00 0.00 45 1007.6
20260508214843 16 360 0.0 0.0 0.00 0.00 0.00 56 1007.3
20260508213328 16 360 0.0 0.0 0.00 0.00 0.00 55 1007.0
20260508211832 16 360 0.0 0.0 0.00 0.00 0.00 56 1006.6